GCXOGCLP

Guest
Details From GCXO - Tenerife Norte - Los Rodeos
To GCLP - Gran Canaria
Flight Number -
Tags generated
Created
Modified
Stats Distance 63 nm / 117 km
Max Altitude 0 ft / 0 m
Waypoints 3
Social Downloads 4
Likes 0
Share VATSIM

Download

Looking for another format? Having issues loading an existing format? Contact us
Advertisement - Login to hide

Notes

None

Route

GCXO GDV GCLP

ID Type Via Altitude Latitude Longitude Leg Dist Tot Dist Heading (true) Name
O GCXO APT - 0 ft / 0 m 28.48266˚ -16.34154˚ - 0 nm - Tenerife Norte - Los Rodeos
GDV VOR - 0 ft / 0 m 28.07708˚ -15.42899˚ 54 nm 54 nm 117° / 117° GRAN CANARIA VOR-DME
O GCLP APT - 0 ft / 0 m 27.93154˚ -15.38559˚ 9 nm 63 nm 165° / 165° Gran Canaria

Altitude Profile

Advertisement - Login to hide

GCXO

Details ICAO GCXO (TFN)
Name Tenerife Norte - Los Rodeos
Region Canary Islands
Timezone Atlantic/Canary (UTC+0.0)
Stats Elevation 2,076 ft / 633 m (AMSL)
Location 28.482656° -16.341541°
Runways 1
Magnetic Variation 5.001° W

METAR

GCXO 181900Z 15003KT 9999 FEW012 13/11 Q1025 NOSIG

Decode

TAF

TAF GCXO 181400Z 1815/1915 13011KT 9999 FEW020 TX16/1913Z TN12/1906Z PROB40 TEMPO 1819/1909 3000 BCFG BKN006

Decode

Departure Runways

ID Width Length Bearing (true) Bearing (mag) Surface Threshold Offset Overrun Length
12 148 ft / 45 m 11,165 ft / 3,403 m 110.67° 115.67° Asphalt 0 ft / 0 m 197 ft / 60 m
30 148 ft / 45 m 11,165 ft / 3,403 m 290.69° 295.69° Asphalt 0 ft / 0 m 197 ft / 60 m

GCLP

Details ICAO GCLP (LPA)
Name Gran Canaria
Region Canary Islands
Timezone Atlantic/Canary (UTC+0.0)
Stats Elevation 77 ft / 23 m (AMSL)
Location 27.931544° -15.385592°
Runways 2
Magnetic Variation 4.683° W

METAR

GCLP 181900Z 36013KT 9999 FEW025 SCT035 19/14 Q1023 NOSIG

Decode

TAF

TAF GCLP 181400Z 1815/1915 03020KT 9999 FEW025 SCT030 TX20/1913Z TN16/1906Z

Decode

Destination Runways

ID Width Length Bearing (true) Bearing (mag) Surface Threshold Offset Overrun Length
03L 148 ft / 45 m 10,203 ft / 3,110 m 21.33° 26.01° Asphalt 0 ft / 0 m 656 ft / 200 m
03R 148 ft / 45 m 10,200 ft / 3,109 m 21.32° 26.00° Asphalt 0 ft / 0 m 673 ft / 205 m
21L 148 ft / 45 m 10,200 ft / 3,109 m 201.33° 206.01° Asphalt 0 ft / 0 m 689 ft / 210 m
21R 148 ft / 45 m 10,203 ft / 3,110 m 201.33° 206.01° Asphalt 0 ft / 0 m 755 ft / 230 m

Approach Navaids

Runway Type Ident Frequency Range Bearing (true) Bearing (mag) Slope Elevation
03L Localiser ILP 109.90 MHz 18 nm / 33 km 21.33° 26.02° - 77 ft / 23 m (AMSL)
03L Glidescope ILP 109.90 MHz 10 nm / 19 km 21.33° 26.02° 3.00° 102 ft / 31 m (AMSL)
03L DME ILP 109.90 MHz 18 nm / 33 km - - - 102 ft / 31 m (AMSL)
21R Localiser RLP 110.70 MHz 18 nm / 33 km 201.32° 206.01° - 77 ft / 23 m (AMSL)
21R Glidescope RLP 110.70 MHz 10 nm / 19 km 201.33° 206.02° 3.00° 77 ft / 23 m (AMSL)
21R DME RLP 110.70 MHz 18 nm / 33 km - - - 57 ft / 17 m (AMSL)

Popular Alternatives